"Period start","avg(HW err(1)/warn(2) (#))","avg(Visibility (m))","avg(Weather code (#))","avg(Precip intensity (mm/h))","min(HW err(1)/warn(2) (#))","max(HW err(1)/warn(2) (#))","std(HW err(1)/warn(2) (#))","med(HW err(1)/warn(2) (#))","min(Visibility (m))","max(Visibility (m))","std(Visibility (m))","med(Visibility (m))","min(Weather code (#))","max(Weather code (#))","std(Weather code (#))","med(Weather code (#))","min(Precip intensity (mm/h))","max(Precip intensity (mm/h))","std(Precip intensity (mm/h))","med(Precip intensity (mm/h))"
2014-03-25 00:00:00,2,1377,65,0.14,2,2,0,2,812,3203,672,1145,41,71,12,71,0.00,0.85,0.26,0.03
2014-03-25 00:10:00,2,1822,71,0.33,2,2,0,2,758,3389,988,1459,71,71,0,71,0.00,1.00,0.29,0.20
2014-03-25 00:20:00,2,1525,71,0.40,2,2,0,2,1127,1943,233,1466,71,71,0,71,0.10,1.75,0.47,0.23
2014-03-25 00:30:00,2,2695,71,0.38,2,2,0,2,1470,4000,847,2835,71,71,0,71,0.15,0.85,0.21,0.30
2014-03-25 00:40:00,2,2527,71,0.49,2,2,0,2,1652,3776,720,2283,71,71,0,71,0.20,0.85,0.16,0.50
2014-03-25 00:50:00,2,2471,71,0.80,2,2,0,2,1640,3539,571,2232,71,71,0,71,0.20,1.10,0.27,0.88
2014-03-25 01:00:00,2,3005,71,1.03,2,2,0,2,1464,5637,1113,2706,71,71,0,71,0.35,1.70,0.32,1.05
2014-03-25 01:10:00,2,4526,71,0.81,2,2,0,2,2559,6612,1421,4215,71,71,0,71,0.25,1.55,0.40,0.78
2014-03-25 01:20:00,2,4562,71,0.82,2,2,0,2,2471,8640,1750,4162,71,71,0,71,0.45,1.65,0.32,0.78
2014-03-25 01:30:00,2,5371,71,0.57,2,2,0,2,4136,6497,856,5346,71,71,0,71,0.15,1.45,0.35,0.50
2014-03-25 01:40:00,2,9950,71,0.40,2,2,0,2,3648,26371,6672,8479,71,71,0,71,0.05,1.55,0.42,0.23
2014-03-25 01:50:00,2,14756,71,0.11,2,2,0,2,6179,34163,9775,11439,71,71,0,71,0.00,0.40,0.12,0.08
2014-03-25 02:00:00,2,18182,50,0.09,2,2,0,2,4699,33178,8499,16834,0,71,33,71,0.00,0.55,0.17,0.00
2014-03-25 02:10:00,2,20458,71,0.10,2,2,0,2,6070,37550,8737,21320,71,71,0,71,0.00,0.55,0.15,0.05
2014-03-25 02:20:00,2,13353,71,0.31,2,2,0,2,5873,24839,5184,13768,71,71,0,71,0.05,0.85,0.26,0.17
2014-03-25 02:30:00,2,10586,71,0.47,2,2,0,2,4913,21845,5311,8660,71,71,0,71,0.00,0.90,0.30,0.47
2014-03-25 02:40:00,2,6248,71,0.57,2,2,0,2,2965,11430,3106,5292,71,71,0,71,0.20,1.25,0.32,0.47
2014-03-25 02:50:00,2,2880,71,0.78,2,2,0,2,1001,5706,1260,2664,71,71,0,71,0.30,1.30,0.30,0.82
2014-03-25 03:00:00,2,4956,71,0.61,2,2,0,2,1356,14341,3911,3311,71,71,0,71,0.00,1.35,0.48,0.68
2014-03-25 03:10:00,2,8496,71,0.27,2,2,0,2,1565,17656,4216,8751,71,71,0,71,0.05,0.80,0.24,0.17
2014-03-25 03:20:00,2,13958,64,0.18,2,2,0,2,2846,25613,8306,12982,0,71,21,71,0.00,0.60,0.23,0.05
2014-03-25 03:30:00,2,13521,64,0.15,2,2,0,2,8738,22934,3857,12868,0,71,21,71,0.00,0.40,0.12,0.15
2014-03-25 03:40:00,2,8665,71,0.35,2,2,0,2,4487,14096,2847,8380,71,71,0,71,0.05,0.65,0.19,0.30
2014-03-25 03:50:00,2,6288,71,0.60,2,2,0,2,2588,11264,2239,6291,71,71,0,71,0.25,1.15,0.27,0.53
2014-03-25 04:00:00,2,5373,71,0.68,2,2,0,2,2232,8650,2045,5152,71,71,0,71,0.05,1.80,0.59,0.57
2014-03-25 04:10:00,2,2501,71,1.14,2,2,0,2,1292,7104,1579,2094,71,71,0,71,0.05,2.25,0.55,1.05
2014-03-25 04:20:00,2,1742,71,2.49,2,2,0,2,679,2863,582,1825,71,71,0,71,1.15,3.15,0.61,2.75
2014-03-25 04:30:00,2,1456,71,2.87,2,2,0,2,1110,2135,306,1385,71,71,0,71,1.85,5.50,1.09,2.55
2014-03-25 04:40:00,2,2384,71,1.24,2,2,0,2,1633,3253,476,2323,71,71,0,71,0.70,2.00,0.45,1.20
2014-03-25 04:50:00,2,5922,71,0.45,2,2,0,2,1740,13402,3238,4642,71,71,0,71,0.00,1.60,0.50,0.23
2014-03-25 05:00:00,2,3889,71,0.79,2,2,0,2,1953,5953,1445,4330,71,71,0,71,0.30,1.55,0.38,0.78
2014-03-25 05:10:00,2,1273,71,2.98,2,2,0,2,524,2250,516,1074,71,71,0,71,0.50,5.35,1.56,3.75
2014-03-25 05:20:00,2,1712,71,3.00,2,2,0,2,674,3706,770,1593,71,72,0,71,1.20,4.30,1.03,3.17
2014-03-25 05:30:00,2,3655,71,1.21,2,2,0,2,937,13177,3474,2549,71,71,0,71,0.05,2.85,0.74,1.25
2014-03-25 05:40:00,2,2628,71,1.38,2,2,0,2,1493,4919,1054,2364,71,71,0,71,0.35,2.10,0.57,1.50
2014-03-25 05:50:00,2,1150,71,3.63,2,2,0,2,630,2297,454,1068,71,72,0,71,2.55,4.60,0.82,3.88
2014-03-25 06:00:00,2,1848,71,2.71,2,2,0,2,577,3261,730,1722,71,72,0,71,1.40,4.95,1.18,2.28
2014-03-25 06:10:00,2,4144,71,1.40,2,2,0,2,1919,9335,2013,3657,71,71,0,71,0.60,2.70,0.64,1.35
2014-03-25 06:20:00,2,3856,71,1.07,2,2,0,2,2591,5874,967,3652,71,71,0,71,0.65,1.90,0.34,1.02
2014-03-25 06:30:00,2,4526,71,1.10,2,2,0,2,2421,7218,1294,4261,71,71,0,71,0.20,2.05,0.56,1.25
2014-03-25 06:40:00,2,3721,71,2.35,2,2,0,2,2156,5811,1178,3433,71,71,0,71,0.45,4.50,1.03,2.33
2014-03-25 06:50:00,2,3721,71,1.92,2,2,0,2,2475,5053,944,3696,71,71,0,71,1.20,2.85,0.52,1.85
2014-03-25 07:00:00,2,1696,71,2.61,2,2,0,2,1149,2232,399,1634,71,71,0,71,1.90,3.80,0.60,2.45
2014-03-25 07:10:00,2,1639,71,2.09,2,2,0,2,967,2604,490,1516,71,71,0,71,1.40,2.60,0.40,2.08
2014-03-25 07:20:00,2,1822,71,2.15,2,2,0,2,1065,3337,601,1742,71,71,0,71,1.10,3.45,0.68,1.93
2014-03-25 07:30:00,2,2235,71,2.25,2,2,0,2,1463,3543,699,1946,71,71,0,71,0.90,4.45,1.06,2.15
2014-03-25 07:40:00,2,1969,71,2.76,2,2,0,2,1671,2438,209,1922,71,71,0,71,1.95,3.50,0.39,2.83
2014-03-25 07:50:00,2,2109,71,2.75,2,2,0,2,1285,2939,608,2244,71,71,0,71,1.85,3.65,0.50,2.83
2014-03-25 08:00:00,2,2040,71,2.22,2,2,0,2,1117,5812,1305,1608,71,71,0,71,0.20,3.30,0.85,2.20
2014-03-25 08:10:00,2,1931,71,2.21,2,2,0,2,917,5771,1418,1316,71,71,0,71,0.25,3.90,0.98,2.17
2014-03-25 08:20:00,2,2606,71,1.47,2,2,0,2,1690,3570,546,2543,71,71,0,71,0.90,3.40,0.68,1.27
2014-03-25 08:30:00,2,3306,71,0.82,2,2,0,2,1560,4515,918,3362,71,71,0,71,0.45,1.25,0.29,0.73
2014-03-25 08:40:00,2,3467,71,0.86,2,2,0,2,2167,6068,1231,3106,71,71,0,71,0.25,1.45,0.35,0.83
2014-03-25 08:50:00,2,1729,71,2.13,2,2,0,2,837,3069,808,1428,71,71,0,71,0.40,3.85,1.14,1.98
2014-03-25 09:00:00,2,1833,71,1.46,2,2,0,2,1028,2706,573,1800,71,71,0,71,0.80,2.35,0.53,1.27
2014-03-25 09:10:00,2,4980,71,0.62,2,2,0,2,1399,9975,2309,4572,71,71,0,71,0.40,0.90,0.17,0.57
2014-03-25 09:20:00,2,9918,71,0.40,2,2,0,2,3511,17994,4017,9139,71,71,0,71,0.05,0.90,0.29,0.38
2014-03-25 09:30:00,2,17972,71,0.21,2,2,0,2,7830,38118,10446,14202,71,71,0,71,0.00,0.60,0.19,0.15
2014-03-25 09:40:00,2,27361,71,0.07,2,2,0,2,17020,40702,7897,25668,71,71,0,71,0.00,0.25,0.08,0.05
2014-03-25 09:50:00,2,15126,71,0.24,2,2,0,2,1249,36256,10140,13938,71,71,0,71,0.00,1.05,0.30,0.15
2014-03-25 10:00:00,2,2646,71,0.94,2,2,0,2,1337,4926,1278,2048,71,71,0,71,0.10,2.40,0.59,0.85
2014-03-25 10:10:00,2,3202,71,0.86,2,2,0,2,1675,5830,1453,2796,71,71,0,71,0.20,2.05,0.59,0.80
2014-03-25 10:20:00,2,3898,71,0.93,2,2,0,2,1229,9950,2794,2890,71,71,0,71,0.05,2.00,0.72,0.65
2014-03-25 10:30:00,2,14932,71,0.16,2,2,0,2,2641,36904,10684,12274,71,71,0,71,0.00,0.75,0.21,0.10
2014-03-25 10:40:00,2,5183,71,0.58,2,2,0,2,2174,9944,2044,4680,71,71,0,71,0.05,1.25,0.42,0.55
2014-03-25 10:50:00,2,7499,71,0.30,2,2,0,2,2648,15225,4994,4789,71,71,0,71,0.00,0.80,0.28,0.23
2014-03-25 11:00:00,2,2441,71,1.74,2,2,0,2,1380,3727,684,2410,71,71,0,71,0.90,2.80,0.62,1.77
2014-03-25 11:10:00,2,4600,71,0.80,2,2,0,2,2057,9405,2251,4159,71,71,0,71,0.20,1.65,0.46,0.80
2014-03-25 11:20:00,2,5882,71,0.67,2,2,0,2,1020,9724,2577,5640,71,71,0,71,0.25,1.85,0.44,0.60
2014-03-25 11:30:00,2,4790,71,0.77,2,2,0,2,1942,10278,2369,4438,71,71,0,71,0.25,1.65,0.41,0.68
2014-03-25 11:40:00,2,4325,71,0.92,2,2,0,2,1359,7214,1833,4311,71,71,0,71,0.15,2.25,0.61,0.73
2014-03-25 11:50:00,2,6217,71,1.09,2,2,0,2,3330,12438,2892,5328,71,71,0,71,0.35,1.85,0.52,1.15
2014-03-25 12:00:00,2,7368,71,0.50,2,2,0,2,3896,13160,2508,7496,71,71,0,71,0.10,1.30,0.34,0.40
2014-03-25 12:10:00,2,7180,71,0.36,2,2,0,2,3384,11488,2925,6460,71,71,0,71,0.15,0.55,0.15,0.40
2014-03-25 12:20:00,2,12836,71,0.21,2,2,0,2,3917,27750,6231,12942,71,71,0,71,0.00,0.60,0.19,0.20
2014-03-25 12:30:00,2,6130,71,0.53,2,2,0,2,2068,10826,2915,4996,71,71,0,71,0.05,1.30,0.41,0.50
2014-03-25 12:40:00,2,2837,71,1.26,2,2,0,2,1388,5847,1398,2280,71,71,0,71,0.15,2.25,0.64,1.15
2014-03-25 12:50:00,2,6160,71,0.66,2,2,0,2,2059,12627,3270,6171,71,71,0,71,0.05,1.70,0.47,0.62
2014-03-25 13:00:00,2,6897,71,0.44,2,2,0,2,3168,10402,2182,7616,71,71,0,71,0.20,0.90,0.24,0.40
2014-03-25 13:10:00,2,5464,71,0.70,2,2,0,2,4153,6780,835,5369,71,71,0,71,0.40,1.15,0.24,0.60
2014-03-25 13:20:00,2,4426,71,1.01,2,2,0,2,3261,6738,1104,4053,71,71,0,71,0.20,1.70,0.50,1.02
2014-03-25 13:30:00,2,3790,71,1.05,2,2,0,2,2072,6718,1434,3342,71,71,0,71,0.55,1.90,0.48,0.80
2014-03-25 13:40:00,2,2837,71,1.44,2,2,0,2,1201,8045,1850,2262,71,71,0,71,0.10,2.80,0.75,1.52
2014-03-25 13:50:00,2,3748,71,0.70,2,2,0,2,1841,5511,1279,3992,71,71,0,71,0.25,1.30,0.32,0.65
2014-03-25 14:00:00,2,5338,71,0.59,2,2,0,2,2787,9238,1660,5330,71,71,0,71,0.15,1.05,0.29,0.60
2014-03-25 14:10:00,2,5535,71,0.70,2,2,0,2,2784,10494,2301,4558,71,71,0,71,0.05,1.45,0.46,0.55
2014-03-25 14:20:00,2,3252,71,1.22,2,2,0,2,1794,5045,958,3146,71,71,0,71,0.60,1.75,0.32,1.25
2014-03-25 14:30:00,2,3981,71,1.14,2,2,0,2,2844,5127,832,4162,71,71,0,71,0.35,2.25,0.62,1.05
2014-03-25 14:40:00,2,2508,71,2.25,2,2,0,2,1472,3182,488,2625,71,71,0,71,1.05,3.00,0.56,2.30
2014-03-25 14:50:00,2,2797,71,1.84,2,2,0,2,1379,6542,1499,2332,71,71,0,71,0.15,3.85,1.07,1.38
2014-03-25 15:00:00,2,2672,71,1.12,2,2,0,2,2131,3508,445,2506,71,71,0,71,0.20,1.80,0.44,1.18
2014-03-25 15:10:00,2,2020,71,1.91,2,2,0,2,1489,2676,386,1939,71,71,0,71,0.90,3.15,0.86,1.73
2014-03-25 15:20:00,2,2423,71,1.15,2,2,0,2,1341,3511,741,2516,71,71,0,71,0.25,2.65,0.63,1.15
2014-03-25 15:30:00,2,3455,71,0.93,2,2,0,2,1823,4796,879,3575,71,71,0,71,0.55,1.60,0.29,0.95
2014-03-25 15:40:00,2,2897,71,1.35,2,2,0,2,2190,3467,367,2963,71,71,0,71,0.55,1.70,0.31,1.43
2014-03-25 15:50:00,2,2739,71,1.64,2,2,0,2,1467,4299,851,2442,71,71,0,71,0.55,3.35,1.01,1.35
2014-03-25 16:00:00,2,2998,71,1.57,2,2,0,2,1226,5099,1236,2592,71,71,0,71,0.20,3.85,1.00,1.30
2014-03-25 16:10:00,2,3166,71,1.71,2,2,0,2,1437,5973,1533,2634,71,71,0,71,0.80,2.80,0.74,1.65
2014-03-25 16:20:00,2,2830,71,1.67,2,2,0,2,1723,3936,758,2818,71,71,0,71,1.00,3.20,0.60,1.53
2014-03-25 16:30:00,2,4554,71,0.78,2,2,0,2,1895,8704,1830,4720,71,71,0,71,0.20,1.35,0.34,0.65
2014-03-25 16:40:00,2,6881,71,0.93,2,2,0,2,2991,13041,3622,5466,71,71,0,71,0.20,2.30,0.68,0.75
2014-03-25 16:50:00,2,12492,71,0.29,2,2,0,2,6947,16567,3256,13412,71,71,0,71,0.00,0.90,0.29,0.17
2014-03-25 17:00:00,2,12155,71,0.21,2,2,0,2,6938,14440,2243,13051,71,71,0,71,0.05,0.60,0.21,0.08
2014-03-25 17:10:00,2,7919,71,0.52,2,2,0,2,5690,10679,1626,8036,71,71,0,71,0.20,1.10,0.23,0.45
2014-03-25 17:20:00,2,5657,71,0.98,2,2,0,2,2606,12024,2642,5206,71,71,0,71,0.05,2.05,0.63,0.75
2014-03-25 17:30:00,2,6337,71,0.41,2,2,0,2,2775,11036,2347,5868,71,71,0,71,0.20,0.60,0.15,0.42
2014-03-25 17:40:00,2,4031,64,0.92,2,2,0,2,1655,6244,1640,4322,0,71,21,71,0.00,1.80,0.58,0.73
2014-03-25 17:50:00,2,10547,71,0.29,2,2,0,2,6170,18790,3550,9620,71,71,0,71,0.05,0.90,0.25,0.25
2014-03-25 18:00:00,2,11174,71,0.34,2,2,0,2,7555,15029,2451,10741,71,71,0,71,0.00,0.90,0.27,0.30
2014-03-25 18:10:00,2,6065,71,0.37,2,2,0,2,4788,8171,1047,5720,71,71,0,71,0.05,1.15,0.30,0.30
2014-03-25 18:20:00,2,7262,71,0.53,2,2,0,2,2874,13457,3733,5488,71,71,0,71,0.15,1.10,0.29,0.57
2014-03-25 18:30:00,2,13690,71,0.16,2,2,0,2,9583,21825,3471,12847,71,71,0,71,0.05,0.55,0.17,0.08
2014-03-25 18:40:00,2,15089,71,0.21,2,2,0,2,6050,22227,4035,14738,71,71,0,71,0.00,0.90,0.26,0.10
2014-03-25 18:50:00,2,18513,71,0.14,2,2,0,2,12165,24448,3425,18660,71,71,0,71,0.00,0.75,0.22,0.08
2014-03-25 19:00:00,2,15871,71,0.12,2,2,0,2,9849,20665,3181,16220,71,71,0,71,0.00,0.30,0.11,0.10
2014-03-25 19:10:00,2,15468,71,0.11,2,2,0,2,11362,24394,3744,15764,71,71,0,71,0.00,0.25,0.09,0.08
2014-03-25 19:20:00,2,13554,71,0.14,2,2,0,2,7249,25226,5718,12570,71,71,0,71,0.00,0.50,0.17,0.08
2014-03-25 19:30:00,2,13250,71,0.08,2,2,0,2,10703,17055,1902,12936,71,71,0,71,0.00,0.20,0.07,0.05
2014-03-25 19:40:00,2,10609,71,0.20,2,2,0,2,2881,19300,5369,10307,71,71,0,71,0.00,0.75,0.24,0.08
2014-03-25 19:50:00,2,13459,71,0.14,2,2,0,2,5998,21195,5361,13014,71,71,0,71,0.00,0.60,0.18,0.08
2014-03-25 20:00:00,2,10788,71,0.15,2,2,0,2,4889,21128,5619,7868,71,71,0,71,0.00,0.45,0.14,0.12
2014-03-25 20:10:00,2,14856,71,0.09,2,2,0,2,5552,23404,5707,15542,71,71,0,71,0.00,0.40,0.12,0.05
2014-03-25 20:20:00,2,8617,71,0.12,2,2,0,2,4835,13886,2952,8676,71,71,0,71,0.00,0.40,0.12,0.10
2014-03-25 20:30:00,2,7844,71,0.14,2,2,0,2,4947,12345,2083,6828,71,71,0,71,0.00,0.25,0.09,0.12
2014-03-25 20:40:00,2,9207,71,0.08,2,2,0,2,5595,12833,2383,9373,71,71,0,71,0.00,0.25,0.09,0.05
2014-03-25 20:50:00,2,11953,74,0.10,2,2,0,2,9618,14384,1537,12102,71,78,3,71,0.00,0.35,0.11,0.05
2014-03-25 21:00:00,2,11494,71,0.07,2,2,0,2,8113,17689,2725,11462,71,71,0,71,0.00,0.20,0.07,0.05
2014-03-25 21:10:00,2,12200,74,0.04,2,2,0,2,9038,14803,2157,12704,71,77,3,74,0.00,0.10,0.04,0.05
2014-03-25 21:20:00,2,12064,75,0.04,2,2,0,2,8954,17446,2690,11221,71,78,3,78,0.00,0.15,0.05,0.03
2014-03-25 21:30:00,2,9307,71,0.07,2,2,0,2,7484,11438,1070,9268,71,71,0,71,0.00,0.25,0.08,0.03
2014-03-25 21:40:00,2,11143,75,0.01,2,2,0,2,9957,12130,724,11124,71,78,3,77,0.00,0.05,0.02,0.00
2014-03-25 21:50:00,2,7342,73,0.05,2,2,0,2,6233,8871,745,7257,71,78,3,71,0.00,0.10,0.04,0.05
2014-03-25 22:00:00,2,8522,76,0.03,2,2,0,2,7500,9586,590,8460,71,78,3,77,0.00,0.05,0.03,0.03
2014-03-25 22:10:00,2,7435,78,0.03,2,2,0,2,5594,8726,851,7570,77,78,0,78,0.00,0.05,0.03,0.03
2014-03-25 22:20:00,2,5284,78,0.06,2,2,0,2,4159,6357,645,5282,77,78,0,78,0.00,0.10,0.03,0.05
2014-03-25 22:30:00,2,6232,77,0.03,2,2,0,2,5155,7312,751,6300,77,78,0,77,0.00,0.10,0.03,0.03
2014-03-25 22:40:00,2,8437,76,0.02,2,2,0,2,6426,10156,1119,8228,71,77,2,77,0.00,0.10,0.03,0.00
2014-03-25 22:50:00,2,10812,76,0.01,2,2,0,2,9353,15618,1754,10396,71,77,2,77,0.00,0.05,0.02,0.00
2014-03-25 23:00:00,2,10643,77,0.01,2,2,0,2,7840,15711,2553,9796,77,77,0,77,0.00,0.05,0.02,0.00
2014-03-25 23:10:00,2,11052,77,0.01,2,2,0,2,7830,14616,1999,11274,77,77,0,77,0.00,0.05,0.02,0.00
2014-03-25 23:20:00,2,11672,77,0.00,2,2,0,2,9076,15573,1909,11754,77,77,0,77,0.00,0.00,0.00,0.00
2014-03-25 23:30:00,2,9522,0,0.00,2,2,0,2,8157,10569,834,9684,0,0,0,0,0.00,0.00,0.00,0.00
2014-03-25 23:40:00,2,8730,4,0.00,2,2,0,2,7281,10293,1004,8740,0,10,5,0,0.00,0.00,0.00,0.00
2014-03-25 23:50:00,2,8108,76,0.02,2,2,0,2,7033,10142,1008,7647,71,78,3,78,0.00,0.05,0.02,0.00
